Weather History for Brownsville, TX

Change the Weather History Date:

Sunday, July 14, 2013

  Actual Average Record
Temperature  
Mean Temperature 86 °F 85 °F  
Max Temperature 97 °F 93 °F 100 °F (2000)
Min Temperature 75 °F 76 °F 61 °F (1901)
Degree Days  
Heating Degree Days 0 0  
Month to date heating degree days 0 0  
Since 1 June heating degree days 0 0  
Since 1 July heating degree days 0 0  
Cooling Degree Days 21 20  
Month to date cooling degree days 280 280  
Year to date cooling degree days 2025 1940  
Since 1 June cooling degree days 903 847  
Growing Degree Days 36 (Base 50)    
Moisture  
Dew Point 74 °F    
Average Humidity 73    
Maximum Humidity 100    
Minimum Humidity 45    
Precipitation  
Precipitation 0.00 in 0.07 in 3.06 in (1936)
Month to date precipitation 0.45 1.09  
Year to date precipitation 6.90 11.42  
Sea Level Pressure  
Sea Level Pressure 29.88 in    
Wind  
Wind Speed 11 mph (SSE)    
Max Wind Speed 22 mph    
Max Gust Speed 28 mph    
Visibility 10 miles    
Events      
T = Trace of Precipitation, MM = Missing Value Source: NWS Daily Summary

Daily Weather History Graph

Daily Weather History Graph

Search for Another Location

Airport:

Trip Planner

Search our weather history database for the weather conditions in past years. The results will help you decide how hot, cold, wet, or windy it might be!

Date:

Astronomy

Jul. 14, 2013 Rise Set
Actual Time 6:47 AM CDT 8:23 PM CDT
Civil Twilight 6:21 AM CDT 8:49 PM CDT
Nautical Twilight 5:50 AM CDT 9:20 PM CDT
Astronomical Twilight 5:18 AM CDT 9:52 PM CDT
Moon 12:23 PM CDT (7/14) No Moon Set
Length of Visible Light 14h 27m
Length of Day
13h 36m
Waxing Crescent, 35% of the Moon is Illuminated
Jul 14
Waxing Crescent
Jul 15
First Quarter
Jul 22
Full
Jul 29
Last Quarter
Aug 6
New

Hourly Weather History & Observations

Time (CDT) Temp. Heat Index Dew Point Humidity Pressure Visibility Wind Dir Wind Speed Gust Speed Precip Events Conditions
12:53 AM 79.0 °F - 75.0 °F 88% 29.92 in 10.0 mi South 5.8 mph - N/A   Clear
1:53 AM 78.1 °F - 75.0 °F 90% 29.90 in 10.0 mi South 6.9 mph - N/A   Clear
2:53 AM 79.0 °F - 75.0 °F 88% 29.89 in 10.0 mi South 6.9 mph - N/A   Clear
3:53 AM 78.1 °F - 75.0 °F 90% 29.88 in 10.0 mi South 4.6 mph - N/A   Clear
4:53 AM 77.0 °F - 75.0 °F 94% 29.86 in 10.0 mi SSE 4.6 mph - N/A   Clear
5:53 AM 75.9 °F - 75.0 °F 97% 29.89 in 10.0 mi NE 3.5 mph - N/A   Clear
6:53 AM 75.9 °F - 73.9 °F 94% 29.89 in 10.0 mi Calm Calm - N/A   Clear
7:53 AM 79.0 °F - 75.9 °F 90% 29.89 in 10.0 mi SE 4.6 mph - N/A   Clear
8:53 AM 84.0 °F 92.6 °F 75.9 °F 76% 29.91 in 10.0 mi South 10.4 mph - N/A   Clear
9:53 AM 87.1 °F 96.3 °F 75.0 °F 67% 29.91 in 10.0 mi South 15.0 mph - N/A   Clear
10:53 AM 91.9 °F 98.4 °F 71.1 °F 50% 29.90 in 10.0 mi South 16.1 mph 20.7 mph N/A   Partly Cloudy
11:53 AM 93.0 °F 99.0 °F 70.0 °F 47% 29.90 in 10.0 mi South 6.9 mph 19.6 mph N/A   Partly Cloudy
12:53 PM 91.9 °F 99.5 °F 72.0 °F 52% 29.90 in 10.0 mi South 13.8 mph 19.6 mph N/A   Mostly Cloudy
1:53 PM 97.0 °F 104.8 °F 71.1 °F 43% 29.90 in 10.0 mi South 12.7 mph 17.3 mph N/A   Clear
2:53 PM 95.0 °F 103.2 °F 72.0 °F 47% 29.89 in 10.0 mi SE 15.0 mph 26.5 mph N/A   Partly Cloudy
3:53 PM 93.9 °F 102.1 °F 72.0 °F 49% 29.86 in 10.0 mi SE 18.4 mph - N/A   Partly Cloudy
4:53 PM 93.0 °F 100.7 °F 72.0 °F 50% 29.84 in 10.0 mi SSE 20.7 mph 27.6 mph N/A   Partly Cloudy
5:53 PM 91.0 °F 99.3 °F 73.0 °F 55% 29.84 in 10.0 mi ESE 20.7 mph 27.6 mph N/A   Scattered Clouds
6:53 PM 88.0 °F 95.6 °F 73.0 °F 61% 29.83 in 10.0 mi SE 13.8 mph - N/A   Partly Cloudy
7:53 PM 84.9 °F 93.3 °F 75.0 °F 72% 29.85 in 10.0 mi SE 17.3 mph 21.9 mph N/A   Partly Cloudy
8:20 PM 84.2 °F 92.3 °F 75.2 °F 74% 29.86 in 10.0 mi SE 16.1 mph - N/A   Mostly Cloudy
8:27 PM 84.2 °F 92.3 °F 75.2 °F 74% 29.86 in 10.0 mi SE 10.4 mph 20.7 mph N/A   Scattered Clouds
8:53 PM 84.0 °F 91.2 °F 73.9 °F 72% 29.87 in 10.0 mi SE 11.5 mph - N/A   Clear
9:53 PM 82.9 °F 90.2 °F 75.0 °F 77% 29.88 in 10.0 mi SE 10.4 mph - N/A   Clear
10:53 PM 82.0 °F 88.6 °F 75.0 °F 79% 29.89 in 10.0 mi SE 10.4 mph - N/A   Clear
11:53 PM 82.0 °F 88.6 °F 75.0 °F 79% 29.90 in 10.0 mi SE 9.2 mph - N/A   Clear